�N����,����,�~����,�C��,���x,�C��,����,���ϕ���,�ő�u�ԕ���,�ő厞����,���˗�,�I�_���x,�n�����x,�ő啗���N��,DTYPE
"16/09/11","00:10",0.0,21.3,82.9,1007.4,336.3,1.7,3.3,345.7,0.00,18.3,24.3,"00:04:48",1
"16/09/11","00:20",0.0,21.2,83.2,1007.6,334.8,1.7,3.3,341.9,0.00,18.3,24.6,"00:16:00",1
"16/09/11","00:30",0.0,21.2,83.7,1007.6,336.2,1.7,2.8,350.3,0.00,18.4,24.4,"00:20:08",1
"16/09/11","00:40",0.0,21.1,83.9,1007.6,334.1,1.7,3.5,337.8,0.00,18.3,24.4,"00:38:00",1
"16/09/11","00:50",0.0,21.2,83.8,1007.8,337.2,1.6,3.1,325.0,0.00,18.4,24.5,"00:40:24",1
"16/09/11","01:00",0.0,21.1,84.0,1007.6,333.3,1.7,3.3,350.3,0.00,18.3,24.5,"00:54:00",1
"16/09/11","01:10",0.0,21.1,84.4,1007.6,329.2,1.3,2.7,346.0,0.00,18.4,24.2,"01:03:36",1
"16/09/11","01:20",0.0,21.1,84.6,1007.4,324.5,1.3,2.4,322.8,0.00,18.4,24.3,"01:10:24",1
"16/09/11","01:30",0.0,21.1,84.6,1007.4,329.3,1.3,3.1,348.4,0.00,18.4,24.4,"01:27:52",1
"16/09/11","01:40",0.0,21.0,84.7,1007.4,313.3,1.2,1.7,316.3,0.00,18.4,24.3,"01:36:48",1
"16/09/11","01:50",0.0,21.0,85.0,1007.6,326.4,1.5,2.9,341.2,0.00,18.4,24.3,"01:46:40",1
"16/09/11","02:00",0.0,21.0,85.1,1007.4,328.8,1.5,2.9,339.3,0.00,18.4,24.2,"01:56:40",1
"16/09/11","02:10",0.0,21.1,85.1,1007.8,325.0,1.5,2.6,329.6,0.00,18.5,24.3,"02:05:52",1
"16/09/11","02:20",0.0,21.0,85.1,1007.4,335.5,1.5,2.7,342.2,0.00,18.4,24.0,"02:15:12",1
"16/09/11","02:30",0.0,20.9,85.2,1007.4,332.9,1.5,2.7,334.1,0.00,18.4,24.1,"02:28:56",1
"16/09/11","02:40",0.0,20.9,85.5,1007.4,332.8,1.6,3.2,342.5,0.00,18.4,24.3,"02:35:12",1
"16/09/11","02:50",0.0,20.9,85.7,1007.8,335.1,2.0,3.7,330.4,0.00,18.5,24.1,"02:44:08",1
"16/09/11","03:00",0.0,20.9,86.0,1007.6,331.0,1.6,2.2,330.7,0.00,18.5,24.0,"02:55:36",1
"16/09/11","03:10",0.0,20.8,85.9,1007.6,339.0,1.8,3.3,12.2,0.00,18.4,24.0,"03:07:20",1
"16/09/11","03:20",0.0,20.9,85.9,1007.6,327.9,1.6,3.3,345.3,0.00,18.5,23.9,"03:16:24",1
"16/09/11","03:30",0.0,21.0,85.8,1007.4,330.7,1.6,2.6,341.4,0.00,18.6,24.0,"03:21:36",1
"16/09/11","03:40",0.0,20.9,85.6,1007.6,325.3,1.5,2.6,334.7,0.00,18.4,24.0,"03:34:40",1
"16/09/11","03:50",0.0,20.9,85.4,1007.6,325.2,1.5,2.7,335.9,0.00,18.4,23.8,"03:43:44",1
"16/09/11","04:00",0.0,20.9,85.5,1007.8,321.6,1.6,2.6,350.7,0.00,18.4,23.9,"03:52:24",1
"16/09/11","04:10",0.0,20.9,85.8,1008.1,319.8,1.2,2.7,351.7,0.00,18.5,24.0,"04:00:16",1
"16/09/11","04:20",0.0,20.9,86.1,1008.1,312.8,1.3,2.7,329.8,0.00,18.5,24.0,"04:15:44",1
"16/09/11","04:30",0.0,20.9,86.2,1007.8,320.0,1.2,2.5,343.9,0.00,18.5,23.8,"04:26:08",1
"16/09/11","04:40",0.0,20.9,86.2,1007.8,330.9,1.6,2.9,338.2,0.00,18.5,23.7,"04:34:24",1
"16/09/11","04:50",0.0,20.9,86.4,1008.1,321.1,1.3,3.3,328.6,0.00,18.6,23.8,"04:42:08",1
"16/09/11","05:00",0.0,20.9,86.5,1008.3,323.3,1.5,2.7,358.7,0.00,18.6,24.0,"04:57:52",1
"16/09/11","05:10",0.0,20.9,86.7,1008.6,326.8,1.5,4.2,4.4,0.00,18.6,23.6,"05:03:12",1
"16/09/11","05:20",0.0,20.8,86.8,1008.6,334.0,1.5,2.4,324.6,0.00,18.6,23.7,"05:11:28",1
"16/09/11","05:30",0.0,20.8,87.1,1008.8,323.6,1.2,2.7,356.6,0.00,18.6,23.9,"05:26:48",1
"16/09/11","05:40",0.0,20.8,87.3,1008.6,322.5,1.5,2.4,347.7,0.00,18.7,23.8,"05:31:12",1
"16/09/11","05:50",0.0,20.8,87.7,1008.6,328.0,1.6,2.7,339.3,0.00,18.7,23.6,"05:47:36",1
"16/09/11","06:00",0.0,20.8,87.9,1008.8,318.3,1.3,1.9,347.8,0.00,18.8,23.7,"05:50:08",1
"16/09/11","06:10",0.0,20.8,88.0,1008.6,321.8,1.2,2.0,324.4,0.00,18.8,23.7,"06:05:20",1
"16/09/11","06:20",0.0,20.9,87.9,1008.8,319.0,1.2,2.1,316.4,0.00,18.9,23.8,"06:16:16",1
"16/09/11","06:30",0.0,21.0,87.7,1008.8,307.2,1.1,1.9,320.1,0.00,18.9,23.7,"06:29:04",1
"16/09/11","06:40",0.0,21.1,87.7,1009.0,318.6,1.3,2.5,344.0,0.01,19.0,23.6,"06:34:48",1
"16/09/11","06:50",0.0,21.2,87.3,1009.0,326.6,1.2,2.0,345.1,0.02,19.0,23.7,"06:46:16",1
"16/09/11","07:00",0.0,21.4,86.9,1009.3,316.9,1.1,2.1,336.2,0.02,19.2,23.6,"06:55:04",1
"16/09/11","07:10",0.0,22.0,85.9,1009.0,306.9,0.8,1.3,339.6,0.06,19.6,23.6,"07:00:24",1
"16/09/11","07:20",0.0,22.5,84.0,1008.8,304.8,0.7,1.9,325.9,0.07,19.7,23.6,"07:13:28",1
"16/09/11","07:30",0.0,23.3,81.9,1008.3,284.4,0.6,1.1,304.5,0.08,20.1,23.9,"07:29:04",1
"16/09/11","07:40",0.0,23.3,81.4,1008.3,303.6,0.7,1.2,300.8,0.06,20.0,23.7,"07:31:36",1
"16/09/11","07:50",0.0,23.2,80.8,1008.8,292.5,0.6,1.3,309.4,0.05,19.8,23.9,"07:44:24",1
"16/09/11","08:00",0.0,23.1,81.9,1008.8,282.3,0.7,1.1,241.0,0.06,19.9,24.0,"07:50:56",1
"16/09/11","08:10",0.0,23.3,81.7,1008.8,294.9,0.6,1.1,294.7,0.07,20.0,24.0,"08:08:24",1
"16/09/11","08:20",0.0,23.6,81.9,1008.8,297.3,0.6,1.2,322.9,0.09,20.4,24.1,"08:14:40",1
"16/09/11","08:30",0.0,24.1,79.8,1009.0,287.1,0.5,1.4,332.3,0.12,20.4,24.1,"08:25:52",1
"16/09/11","08:40",0.0,24.4,78.1,1008.8,305.6,0.7,1.4,356.0,0.13,20.4,24.2,"08:34:24",1
"16/09/11","08:50",0.0,24.6,77.5,1009.0,296.0,0.7,1.8,356.8,0.15,20.4,24.1,"08:42:00",1
"16/09/11","09:00",0.0,25.0,77.0,1008.8,293.0,0.3,1.0,275.2,0.16,20.7,24.2,"08:57:04",1
"16/09/11","09:10",0.0,26.0,74.4,1008.8,321.0,0.5,1.3,210.2,0.28,21.1,24.5,"09:02:08",1
"16/09/11","09:20",0.0,26.8,73.1,1008.3,358.0,0.5,1.3,13.4,0.33,21.6,24.7,"09:11:28",1
"16/09/11","09:30",0.0,26.4,70.9,1007.4,207.2,0.7,2.7,221.7,0.27,20.7,24.7,"09:24:32",1
"16/09/11","09:40",0.0,26.9,71.4,1007.4,131.6,0.2,0.9,144.7,0.23,21.3,24.7,"09:31:04",1
"16/09/11","09:50",0.0,27.1,69.0,1007.8,296.1,0.1,1.0,350.0,0.22,21.0,24.9,"09:45:20",1
"16/09/11","10:00",0.0,27.4,67.6,1008.3,324.4,0.2,1.0,3.4,0.23,20.9,25.2,"09:59:52",1
"16/09/11","10:10",0.0,27.6,68.0,1008.1,4.1,0.3,1.1,2.3,0.24,21.2,25.3,"10:04:56",1
"16/09/11","10:20",0.0,27.7,66.8,1008.3,188.2,0.8,1.6,220.3,0.29,21.0,25.3,"10:16:00",1
"16/09/11","10:30",0.0,28.2,65.3,1008.6,146.1,0.6,1.6,177.9,0.30,21.1,25.4,"10:20:24",1
"16/09/11","10:40",0.0,28.3,65.5,1008.8,194.8,0.5,1.3,213.8,0.30,21.3,25.7,"10:34:24",1
"16/09/11","10:50",0.0,28.4,66.3,1009.0,125.3,0.8,2.2,316.4,0.34,21.5,25.9,"10:46:56",1
"16/09/11","11:00",0.0,28.8,62.4,1009.3,160.6,0.7,1.3,199.0,0.34,20.9,25.8,"10:55:20",1
"16/09/11","11:10",0.0,30.2,59.8,1009.3,111.3,0.7,1.9,111.8,0.54,21.6,26.0,"11:04:40",1
"16/09/11","11:20",0.0,30.3,59.8,1009.3,157.8,0.6,1.4,104.0,0.54,21.7,26.2,"11:19:52",1
"16/09/11","11:30",0.0,29.8,61.2,1009.7,43.1,1.2,2.9,0.0,0.45,21.6,26.4,"11:28:40",1
"16/09/11","11:40",0.0,29.5,61.9,1008.8,143.8,1.3,2.4,111.5,0.40,21.5,26.5,"11:32:00",1
"16/09/11","11:50",0.0,29.9,63.0,1008.6,84.5,0.8,2.5,66.3,0.34,22.1,26.8,"11:41:04",1
"16/09/11","12:00",0.0,30.4,59.6,1008.8,130.3,0.7,1.9,85.0,0.39,21.7,27.0,"11:58:16",1
"16/09/11","12:10",0.0,30.2,58.3,1008.8,115.9,1.0,2.7,147.6,0.47,21.1,27.2,"12:05:28",1
"16/09/11","12:20",0.0,29.9,58.7,1008.8,152.3,0.7,1.7,121.9,0.22,21.0,27.1,"12:14:48",1
"16/09/11","12:30",0.0,31.6,54.1,1008.6,77.8,0.7,2.1,111.0,0.58,21.2,27.6,"12:23:20",1
"16/09/11","12:40",0.0,32.1,51.8,1009.0,130.4,0.8,2.9,205.1,0.64,21.0,27.7,"12:30:02",1
"16/09/11","12:50",0.0,30.9,59.2,1008.6,193.2,2.1,4.3,221.1,0.51,22.1,27.9,"12:45:44",1
"16/09/11","13:00",0.0,31.2,56.4,1008.6,58.8,0.8,2.2,7.2,0.40,21.5,28.1,"12:54:32",1
"16/09/11","13:10",0.0,30.8,55.9,1008.6,142.4,1.0,2.4,144.6,0.33,21.0,28.3,"13:07:44",1
"16/09/11","13:20",0.0,31.2,56.4,1008.3,156.0,1.0,2.0,210.0,0.33,21.5,28.2,"13:12:32",1
"16/09/11","13:30",0.0,31.4,52.3,1008.1,142.3,0.8,2.5,352.4,0.39,20.5,28.3,"13:28:08",1
"16/09/11","13:40",0.0,31.3,51.7,1007.8,43.2,0.8,1.8,359.1,0.36,20.2,28.4,"13:33:20",1
"16/09/11","13:50",0.0,32.7,50.2,1008.3,34.0,0.5,1.8,350.3,0.51,21.0,28.7,"13:44:16",1
"16/09/11","14:00",0.0,32.1,53.0,1008.1,148.4,0.6,1.7,120.6,0.41,21.4,28.6,"13:53:44",1
"16/09/11","14:10",0.0,31.8,49.6,1008.1,92.8,0.7,1.8,53.0,0.32,20.0,28.8,"14:09:12",1
"16/09/11","14:20",0.0,32.1,53.7,1007.8,145.1,1.0,2.5,123.7,0.39,21.6,28.9,"14:18:00",1
"16/09/11","14:30",0.0,32.0,54.5,1008.1,119.3,1.0,2.9,114.6,0.38,21.7,29.0,"14:26:40",1
"16/09/11","14:40",0.0,32.3,51.7,1008.1,122.0,0.8,2.0,210.5,0.36,21.1,29.1,"14:34:40",1
"16/09/11","14:50",0.0,30.6,57.9,1007.8,106.8,0.8,2.1,81.6,0.09,21.4,28.9,"14:40:40",1
"16/09/11","15:00",0.0,31.1,53.8,1007.6,110.6,0.5,1.3,152.1,0.18,20.7,28.9,"14:52:48",1
"16/09/11","15:10",0.0,31.9,53.0,1007.4,135.3,0.7,1.9,121.1,0.31,21.2,28.9,"15:05:36",1
"16/09/11","15:20",0.0,32.0,50.5,1007.6,114.7,1.0,2.2,155.3,0.30,20.5,29.0,"15:18:48",1
"16/09/11","15:30",0.0,31.8,51.3,1007.4,160.2,1.3,3.1,141.0,0.30,20.6,28.9,"15:22:56",1
"16/09/11","15:40",0.0,31.7,51.3,1007.6,127.3,0.8,2.0,150.4,0.27,20.5,28.8,"15:37:44",1
"16/09/11","15:50",0.0,31.7,56.2,1007.6,173.6,1.6,3.3,204.2,0.21,21.9,28.9,"15:44:56",1
"16/09/11","16:00",0.0,31.4,48.8,1006.9,175.8,0.6,1.7,211.9,0.13,19.4,28.8,"15:59:52",1
"16/09/11","16:10",0.0,31.0,55.5,1007.4,187.7,0.8,1.8,220.6,0.06,21.1,28.9,"16:00:16",1
"16/09/11","16:20",0.0,30.4,57.7,1006.7,319.7,0.1,0.9,347.2,0.04,21.2,28.7,"16:16:48",1
"16/09/11","16:30",0.0,30.0,60.1,1006.7,191.7,0.1,0.9,195.7,0.04,21.5,28.6,"16:21:36",1
"16/09/11","16:40",0.0,29.7,61.5,1006.2,359.7,0.3,1.4,355.5,0.04,21.6,28.3,"16:31:36",1
"16/09/11","16:50",0.0,29.5,64.2,1006.0,1.7,0.5,1.4,347.0,0.03,22.1,28.3,"16:40:48",1
"16/09/11","17:00",0.0,29.1,66.6,1006.0,16.2,0.5,1.6,12.0,0.02,22.3,28.4,"16:56:00",1
"16/09/11","17:10",0.0,28.6,65.0,1005.5,30.3,0.2,1.1,103.1,0.01,21.4,28.1,"17:00:48",1
"16/09/11","17:20",0.0,28.8,63.5,1005.2,22.0,0.7,2.0,30.7,0.02,21.2,28.2,"17:13:28",1
"16/09/11","17:30",0.0,28.7,64.3,1005.2,261.7,0.2,0.8,333.0,0.01,21.3,27.9,"17:20:56",1
"16/09/11","17:40",0.0,28.3,65.5,1005.5,260.2,0.3,1.4,225.6,0.00,21.3,28.0,"17:36:08",1
"16/09/11","17:50",0.0,28.2,68.8,1006.0,297.3,0.2,0.8,313.1,0.01,22.0,27.6,"17:46:32",1
"16/09/11","18:00",0.0,27.9,69.0,1006.2,331.2,0.8,2.0,343.9,0.00,21.7,27.6,"17:54:48",1
"16/09/11","18:10",0.0,27.6,70.2,1006.2,328.0,0.8,1.7,347.6,0.00,21.7,27.6,"18:01:20",1
"16/09/11","18:20",0.0,27.2,72.1,1006.4,331.3,0.7,1.4,347.0,0.00,21.8,27.6,"18:11:28",1
"16/09/11","18:30",0.0,26.8,72.7,1006.2,349.6,0.3,1.2,332.1,0.00,21.5,27.3,"18:22:24",1
"16/09/11","18:40",0.0,26.5,75.6,1006.7,274.8,0.2,1.0,329.5,0.00,21.9,27.2,"18:30:24",1
"16/09/11","18:50",0.0,26.0,77.3,1006.9,306.5,0.5,0.8,332.4,0.00,21.8,27.3,"18:41:52",1
"16/09/11","19:00",0.0,25.8,78.2,1006.9,310.4,0.2,0.6,318.9,0.00,21.8,27.1,"18:53:28",1
"16/09/11","19:10",0.0,25.8,79.5,1007.4,311.6,0.5,0.6,341.0,0.00,22.0,27.1,"19:03:36",1
"16/09/11","19:20",0.0,25.6,80.2,1007.6,325.6,0.5,1.3,354.2,0.00,22.0,26.9,"19:19:12",1
"16/09/11","19:30",0.0,25.5,80.8,1007.6,337.3,1.0,1.3,323.6,0.00,22.0,26.9,"19:20:24",1
"16/09/11","19:40",0.0,25.4,82.0,1007.6,334.2,0.7,1.4,335.4,0.00,22.1,26.9,"19:31:52",1
"16/09/11","19:50",0.0,25.3,82.8,1007.8,312.7,0.5,0.9,335.8,0.00,22.2,26.7,"19:48:16",1
"16/09/11","20:00",0.0,25.1,82.7,1008.3,314.4,0.5,1.4,339.6,0.00,22.0,26.6,"19:59:52",1
"16/09/11","20:10",0.0,25.2,82.6,1008.6,305.4,0.5,1.1,318.5,0.00,22.1,26.6,"20:01:44",1
"16/09/11","20:20",0.0,25.3,81.6,1008.8,337.7,1.0,1.9,352.6,0.00,22.0,26.7,"20:13:36",1
"16/09/11","20:30",0.0,25.4,81.6,1008.6,333.1,0.8,1.8,345.2,0.00,22.1,26.6,"20:25:28",1
"16/09/11","20:40",0.0,25.4,81.2,1008.3,335.2,0.8,1.9,347.6,0.00,22.0,26.4,"20:39:12",1
"16/09/11","20:50",0.0,25.5,80.3,1008.3,324.9,0.8,1.9,355.6,0.00,21.9,26.3,"20:40:40",1
"16/09/11","21:00",0.0,25.5,80.2,1008.8,329.0,0.7,2.2,344.1,0.00,21.9,26.6,"20:53:44",1
"16/09/11","21:10",0.0,25.4,80.4,1009.0,330.2,0.8,1.3,343.4,0.00,21.8,26.3,"21:03:20",1
"16/09/11","21:20",0.0,25.4,80.5,1009.3,329.8,1.0,2.5,41.9,0.00,21.8,26.4,"21:16:40",1
"16/09/11","21:30",0.0,25.3,80.7,1009.0,332.2,1.0,2.1,345.6,0.00,21.8,26.2,"21:29:52",1
"16/09/11","21:40",0.0,25.1,81.4,1009.0,326.0,1.0,1.8,0.7,0.00,21.7,26.1,"21:34:16",1
"16/09/11","21:50",0.0,25.0,82.1,1008.8,335.8,1.0,1.7,346.8,0.00,21.8,26.2,"21:48:24",1
"16/09/11","22:00",0.0,24.8,82.6,1009.3,315.4,0.7,1.3,349.4,0.00,21.7,26.1,"21:50:16",1
"16/09/11","22:10",0.0,24.7,83.0,1009.0,317.7,0.7,1.3,311.7,0.00,21.7,26.0,"22:06:40",1
"16/09/11","22:20",0.0,24.6,83.0,1009.0,316.7,1.0,2.0,346.4,0.00,21.6,26.2,"22:15:04",1
"16/09/11","22:30",0.0,24.6,83.2,1008.8,305.8,0.7,1.0,312.2,0.00,21.6,25.9,"22:24:56",1
"16/09/11","22:40",0.0,24.5,83.6,1009.3,310.0,0.8,1.4,326.0,0.00,21.6,25.9,"22:33:12",1
"16/09/11","22:50",0.0,24.4,83.8,1009.5,299.6,0.7,1.2,306.9,0.00,21.5,26.0,"22:46:32",1
"16/09/11","23:00",0.0,24.3,84.1,1009.5,312.8,0.8,1.4,305.5,0.00,21.5,25.8,"22:59:12",1
"16/09/11","23:10",0.0,24.2,84.4,1009.7,311.5,0.7,1.3,313.1,0.00,21.4,25.7,"23:09:28",1
"16/09/11","23:20",0.0,24.1,84.6,1009.7,317.2,0.7,1.6,316.6,0.00,21.4,25.8,"23:16:48",1
"16/09/11","23:30",0.0,24.0,84.5,1009.7,321.2,0.8,2.1,348.0,0.00,21.3,25.7,"23:20:56",1
"16/09/11","23:40",0.0,24.0,84.7,1010.0,322.4,1.0,1.7,325.1,0.00,21.3,25.7,"23:31:36",1
"16/09/11","23:50",0.0,23.9,85.1,1010.4,335.7,1.2,3.1,352.0,0.00,21.3,25.5,"23:42:24",1
"16/09/11","24:00",0.0,23.7,85.3,1010.0,335.0,1.1,2.1,342.1,0.00,21.1,25.6,"23:50:32",1
